Simultaneous Nadir Overpasses (SNOs) Predictions

Prediction of SNOs between GOES-16 and AQUA Satellite Orbit:

Table of predicted SNOs for the next 14.0 days since TLE Epoch: 9/28/2024
Index Date Time (GOES-16) GOES-16 Lat,Lon AQUA Lat,Lon Distance(km) Time Diff (sec)
1 09/28/2024 19:18:54 -0.05, -75.21 -0.09, -75.46 27.75 80
2 09/30/2024 19:03:52 -0.04, -75.23 0.86, -71.13 466.63 80
3 10/01/2024 07:21:01 0.04, -75.22 0.19, -75.92 79.64 80
4 10/03/2024 07:05:57 0.04, -75.24 -0.76, -71.59 416.49 80
5 10/03/2024 19:23:15 -0.04, -75.26 -0.28, -76.42 130.90 80
6 10/05/2024 19:08:09 -0.04, -75.29 0.66, -72.07 366.60 80
7 10/06/2024 07:25:17 0.04, -75.29 0.39, -76.86 178.85 80
8 10/08/2024 07:07:29 0.04, -75.32 -0.55, -72.51 319.53 80
9 10/08/2024 19:27:25 -0.03, -75.33 -0.48, -77.33 227.50 80
10 10/10/2024 19:12:15 -0.03, -75.37 0.46, -72.97 271.98 80
11 10/11/2024 07:32:03 0.02, -75.37 0.53, -77.76 272.77 80
